sat.trackr.live / text

‹ back to catalog

STARLINK-36342

NORAD 67649 · 2026-022B

PAYLOAD ACTIVE UNKNOWN

§ Identity

Operator
Country
US
Launch date
2026-02-02
Launch site
AFWTR
Launch vehicle
Mass (kg)
RCS (m²)

Purposes: comms

External: N2YO · Heavens-Above · Gunter

§ Orbital elements

Epoch: 2026-05-25T01:40:24.062016Z

Period
93.91 min
Inclination
97.2845°
Eccentricity
0.0000776
Mean motion
15.33444164 rev/d
Perigee alt
465.0 km
Apogee alt
466.1 km
Semi-major
6,843.7 km
B*
3.9221e-4
RAAN
179.3246°
Arg perigee
98.8917°
Mean anomaly
261.2414°
Rev number
1,734

§ Raw data

STARLINK-363421 67649U 26022B   26145.06972294  .00012608  00000+0  39221-3 0  99972 67649  97.2845 179.3246 0000776  98.8917 261.2414 15.33444164 17343

JSON: /api/v1/satellites/67649 · /tle

For live sub-satellite position, see the globe view (requires WebGL).

§ Visibility from observer

Set your observer location to see the next 7 days of passes ≥ 10°. The values pass through the URL so the page stays shareable.

No JS? Fill the form by hand. The geolocation button needs JavaScript.